User: anonymous   Login
Location: Laterina
(43.5167°N, 11.7167°E)
Time: 23:33:25
(UTC+00:00)
Language:

ISS - Orbit

View from above orbital plane
View from above orbital plane
View from above satellite
View from above satellite

Ground track
Ground track

The orbit data is extracted from the following two-line orbital elements,

1 25544U 98067A   21127.85641716  .00000299  00000-0  13583-4 0  9995
2 25544  51.6442 182.2074 0002796 331.3581 191.8124 15.48982182282349
Epoch (UTC): 07 May 2021 20:33:14
Eccentricity: 0.0002796
inclination: 51.6442°
perigee height: 418 km
apogee height: 421 km
right ascension of ascending node: 182.2074°
argument of perigee: 331.3581°
revolutions per day: 15.48982182
mean anomaly at epoch: 191.8124°
orbit number at epoch: 28234

The dashed part of the orbit path shows where the satellite is in the earth's shadow,  

DLR